Location: Unspecified
(0.0000°N, 0.0000°E)
Time: 08:04:54
(UTC+00:00)

Envisat - Pass Details

Date: 15 February 2018
Orbit: 764 x 766 km, 98.2° (Epoch: 23 May)

Event Time Altitude Azimuth Distance (km) Brightness Sun altitude
Rises 19:03:35 0° 140° (SE) 3,227 6.0 -12.1°
Reaches altitude 10° 19:06:30 10° 123° (ESE) 2,298 5.1 -12.8°
Enters shadow 19:09:48 19° 82° (E) 1,737 4.2 -13.6°
Exits shadow 19:15:16 - 21° (NNE) 2,793 5.6 -14.9°
Sets 19:16:29 0° 16° (NNE) 3,213 5.9 -15.2°
